Tracking 23762 objects as of 20-Oct-2021
HD Live streaming from Space Station
objects crossing your sky now

SUCHAI

Track SUCHAI now!
10-day predictions
SUCHAI is classified as:


NORAD ID: 42788
Int'l Code: 2017-036Z
Perigee: 486.4 km
Apogee: 503.6 km
Inclination: 97.2 °
Period: 94.4 minutes
Semi major axis: 6865 km
RCS: Unknown
Launch date: June 23, 2017
Source: Chile (CHLE)
Launch site: SRIHARIKOTA (SRI)

Uplink (MHz):
Downlink (MHz): 437.225
Beacon (MHz): 437.229
Mode: CW
Call sign: SUCHAI
Status: Active

aabbcc
Your satellite tracking list
Your tracking list is empty




NASA's NSSDC Master Catalog

Two Line Element Set (TLE):
1 42788U 17036Z   21293.12680889  .00004743  00000-0  18689-3 0  9998
2 42788  97.2374 339.3061 0012506  95.5499 264.7166 15.25986538240496
Source of the keplerian elements: AMSAT